Location: Newark
(44.1667°N, 8.2500°E)
Time: 02:36:41
(UTC+00:00)

Vanguard 2 - Pass Details

Date: 11 December 2019
Orbit: 553 x 2938 km, 32.9° (Epoch: 23 January)

Event Time Altitude Azimuth Distance (km) Brightness Sun altitude
Exits shadow 04:09:58 32° 247° (WSW) 4,182 10.7 -28.1°
Maximum altitude 04:18:56 54° 191° (SSW) 3,283 10.5 -26.5°
Drops below altitude 10° 04:33:30 10° 120° (ESE) 4,920 12.5 -23.9°
Sets 04:36:55 0° 116° (ESE) 5,660 13.2 -23.3°
